Theta_e
278 278 278 278 278 277 277 277 277 277 277 277 277 277 277 277 277 277 277 277 278 278 278 278 278 278 278 278 278 278 278 278 278 277 277 277 277 277 276 276 276 276
278 278 278 277 277 277 277 277 277 277 277 276 277 277 277 276 276 277 277 277 277 277 277 277 277 277 277 278 278 278 278 278 277 277 277 277 277 277 276 276 276 275
277 277 277 277 277 276 276 276 276 276 276 276 276 276 276 276 276 276 276 276 276 277 277 277 277 277 277 277 277 278 278 278 277 277 277 277 277 276 276 276 276 275
277 277 277 276 276 276 276 276 276 275 275 275 275 275 275 275 275 275 275 275 276 276 276 276 277 277 277 277 277 277 277 277 277 277 277 277 277 276 276 276 275 275
277 277 276 276 276 276 276 275 275 275 274 274 274 274 274 274 274 274 274 275 275 275 275 276 276 276 276 276 276 277 277 277 277 277 276 276 276 276 276 275 275 275
277 276 276 276 276 276 275 275 275 274 274 274 274 274 273 273 273 273 274 274 274 274 274 274 275 275 276 276 276 276 276 276 276 276 276 276 276 276 275 275 274 274
276 276 276 276 276 275 275 275 274 274 274 274 273 273 273 273 273 273 273 273 273 273 273 273 274 274 275 275 275 276 276 276 276 276 276 275 275 275 274 274 274 273
276 276 276 275 275 275 275 275 274 274 274 273 273 273 273 272 272 272 272 272 272 272 272 272 273 273 274 274 274 275 275 276 276 275 275 275 274 274 274 274 273 273
276 275 275 275 275 275 275 274 274 274 273 273 273 272 272 272 272 272 272 271 271 271 271 271 272 272 272 273 273 274 274 274 274 274 274 274 273 273 273 273 273 272
275 275 275 275 275 275 275 274 274 273 273 273 272 272 272 272 271 271 271 271 271 271 271 271 271 271 271 271 272 272 273 273 273 273 272 272 272 272 272 272 271 271
275 275 275 275 274 274 274 274 274 273 273 272 272 272 272 271 271 271 271 270 270 270 270 270 270 270 270 270 271 271 271 271 272 271 272 272 271 271 271 271 271 270
275 275 274 274 274 274 274 274 274 273 272 272 272 271 271 271 271 270 270 270 270 270 270 270 269 270 269 269 270 270 270 270 270 271 271 271 270 270 270 270 270 270
275 274 274 274 273 273 273 273 273 272 272 272 271 271 271 271 270 270 270 269 269 269 269 269 269 269 269 268 269 269 270 270 270 270 270 270 269 269 269 269 269 269
274 274 274 273 273 273 273 273 272 272 271 271 271 271 270 270 270 269 269 269 268 268 268 268 268 268 267 267 268 268 269 269 269 269 268 268 268 268 268 268 268 268
274 273 273 273 272 272 272 272 272 271 271 271 270 270 269 269 269 269 268 268 268 268 268 267 267 267 267 267 267 267 268 268 268 267 267 267 267 267 267 267 268 268
273 273 273 272 272 272 272 272 271 271 271 270 270 269 268 268 268 268 267 267 267 267 267 266 266 266 266 266 267 267 267 267 267 267 267 268 268 268 268 268 268 268
272 272 272 272 271 271 271 271 271 270 270 269 269 268 268 268 268 267 267 266 266 266 266 266 265 265 265 266 266 267 267 267 268 268 268 267 267 267 267 268 268 268
272 272 271 271 271 271 270 270 270 269 269 268 268 267 267 267 267 267 266 266 266 266 265 265 265 265 265 265 266 266 267 267 267 267 267 267 267 267 267 267 268 268
271 271 271 271 270 270 269 269 269 268 268 267 267 267 266 266 266 266 266 266 266 265 265 265 264 264 264 265 265 266 266 267 267 267 267 267 267 267 267 267 268 268
271 271 270 270 269 269 269 268 268 267 267 267 266 266 266 266 265 265 265 265 265 265 265 264 264 264 264 264 265 266 266 267 267 267 267 267 267 267 267 267 267 267
270 270 270 269 269 268 268 267 267 266 266 266 266 265 265 265 265 265 265 265 265 264 264 264 264 263 264 264 265 266 266 266 267 266 266 266 266 266 266 267 267 267
270 269 269 268 268 267 267 266 266 266 265 265 265 265 264 264 264 264 264 264 264 264 264 263 263 263 263 264 265 265 266 266 266 266 266 265 265 266 266 267 266 266
269 268 268 267 267 267 266 266 265 265 265 264 264 264 264 264 264 264 264 264 263 263 263 263 263 263 263 263 264 265 265 266 266 266 266 265 265 266 266 266 266 266
268 268 267 267 266 266 265 265 265 264 264 264 263 263 263 263 263 263 263 263 263 263 263 263 263 262 262 263 264 265 265 266 266 266 266 266 266 266 266 266 265 265
267 267 266 266 266 265 265 264 264 263 263 263 263 263 263 262 262 262 263 263 263 263 263 263 262 262 262 262 263 264 266 266 266 267 267 266 266 266 266 266 265 265
266 266 266 265 265 265 264 263 263 262 262 262 262 262 262 262 262 262 262 262 263 263 263 262 262 262 262 262 263 264 266 266 266 266 266 266 266 266 266 265 265 265
Wind_Speed
13 12 12 13 13 13 13 14 15 15 15 15 15 16 16 16 17 17 18 18 19 19 21 22 21 21 20 20 20 20 20 21 21 21 21 20 18 16 14 15 16 15
12 12 12 12 12 12 13 14 14 14 14 15 16 16 16 16 17 17 18 19 19 19 19 20 21 21 21 22 22 22 22 22 22 22 22 22 20 18 17 17 17 15
12 12 12 11 12 13 13 13 13 13 14 15 16 16 16 17 18 18 19 19 19 19 19 20 20 20 21 22 23 23 22 22 22 22 21 21 20 19 18 17 16 14
12 12 11 11 12 13 13 14 13 13 14 15 15 16 16 18 19 19 20 19 19 19 19 20 20 20 20 21 23 24 23 23 23 22 21 21 20 17 16 15 15 14
12 12 12 11 12 13 14 14 14 13 14 15 15 16 16 17 18 19 19 19 19 20 20 20 20 20 20 20 22 23 23 23 23 22 21 21 20 18 16 15 14 13
13 13 13 13 13 14 14 14 14 14 14 14 15 16 17 17 18 18 18 19 19 20 21 21 21 21 20 20 20 21 22 23 23 22 21 20 19 18 16 14 13 12
13 13 14 14 14 14 15 14 14 14 15 15 16 16 16 17 17 17 17 18 19 20 21 21 21 21 21 20 20 19 20 22 23 22 21 19 18 17 15 14 14 14
13 14 14 14 15 15 16 16 15 15 15 16 16 16 16 16 16 16 17 17 18 19 20 20 20 21 20 21 21 21 20 20 20 18 17 16 16 16 16 16 16 16
14 14 15 15 16 17 17 17 16 16 15 15 16 16 16 16 16 16 16 17 18 18 18 19 19 19 19 19 20 21 20 19 17 14 14 14 15 16 17 17 17 17
15 15 15 16 16 17 17 17 17 16 16 15 16 16 16 17 16 16 16 17 18 18 18 18 18 18 18 18 19 19 18 16 15 15 15 15 16 16 17 17 18 18
15 15 15 16 17 17 17 17 17 16 15 15 15 16 16 16 16 16 17 18 19 19 19 19 18 17 17 17 19 20 19 17 15 15 15 15 16 16 16 17 18 19
15 15 16 16 16 16 17 17 16 15 15 15 15 16 16 16 17 17 18 19 20 20 19 19 18 18 18 18 19 20 19 19 18 16 16 15 14 14 15 16 18 19
15 15 16 16 16 16 17 16 15 15 15 15 15 16 16 17 18 19 20 20 21 20 19 19 19 19 19 20 21 21 19 19 17 15 14 14 15 17 18 20 21 22
16 16 17 17 16 15 15 16 15 16 16 16 16 16 16 18 19 20 21 20 21 20 20 20 20 21 22 23 23 22 20 20 19 19 20 21 22 24 24 24 24 24
16 17 16 16 15 15 15 16 16 16 16 16 15 15 17 20 22 21 20 21 21 21 21 21 22 24 23 22 22 22 22 23 24 25 26 26 26 26 25 25 24 24
17 16 15 15 15 15 15 15 15 16 16 15 16 17 20 23 23 21 21 22 22 22 22 22 23 23 22 21 22 22 23 25 25 25 24 23 23 23 23 23 22 22
17 16 15 14 14 15 15 15 15 15 15 16 18 21 23 23 21 21 21 22 23 23 23 23 24 24 22 22 22 23 24 25 25 24 23 23 23 23 23 24 23 23
16 15 14 14 14 15 15 15 15 16 17 19 21 23 22 21 20 21 21 22 23 23 23 23 24 24 22 22 23 24 24 25 25 24 24 23 23 23 24 24 24 23
14 14 14 14 14 14 14 15 16 17 19 21 22 22 21 20 21 21 22 22 22 21 22 23 25 24 22 22 23 24 24 24 24 24 23 23 22 22 22 22 23 22
13 13 13 13 13 13 15 15 17 19 20 20 20 20 20 20 21 21 21 21 20 20 22 24 25 25 23 22 23 23 23 23 23 22 21 21 21 20 20 21 22 22
13 13 13 12 13 14 15 17 18 19 20 19 19 19 19 20 21 21 20 20 19 21 23 24 25 24 22 22 23 23 22 21 21 20 20 19 19 19 20 20 19 16
13 12 12 13 14 15 17 18 18 18 18 18 18 19 19 19 20 20 20 20 21 22 22 23 24 22 21 22 23 22 21 21 20 19 18 18 19 19 19 17 15 14
12 12 13 14 15 17 18 18 17 17 17 17 17 18 18 19 20 20 21 22 22 21 21 22 23 23 23 22 23 21 20 20 20 19 18 17 18 18 17 15 15 15
12 13 14 15 16 17 17 17 16 17 17 16 16 18 19 19 20 21 21 21 21 20 20 20 23 25 24 23 22 21 20 20 20 19 19 17 16 16 14 12 12 11
12 13 15 16 17 17 17 17 17 16 16 16 17 18 19 20 20 20 20 20 19 19 19 20 24 26 25 22 20 19 19 18 15 14 16 18 16 13 10 7 8 8
13 14 15 16 16 17 17 17 16 16 16 17 17 18 19 20 20 20 21 20 20 21 23 24 25 25 23 20 18 17 17 14 9 8 8 9 10 8 6 6 5 5
Wind_Direction
298 295 294 298 301 302 304 308 312 312 311 312 313 313 314 316 316 315 314 313 312 309 306 305 306 304 296 286 283 282 280 277 276 276 273 266 257 254 256 259 258 262
291 288 289 294 297 297 300 303 305 307 309 310 312 313 314 315 314 313 312 310 309 307 305 303 302 303 301 294 287 282 279 277 274 275 274 268 259 255 258 261 259 257
285 283 285 289 294 295 297 300 301 303 307 310 311 313 315 315 313 312 310 309 308 306 305 304 301 300 300 299 293 284 279 275 272 272 274 275 269 260 259 262 261 258
282 282 283 286 290 293 294 296 298 302 306 308 310 312 314 314 313 312 311 310 309 307 306 304 301 298 295 295 294 289 281 274 272 273 274 276 276 269 264 265 267 265
280 281 284 285 287 290 292 292 296 301 303 304 307 310 312 313 313 314 314 314 313 311 308 307 306 303 297 292 289 289 285 277 271 272 273 274 275 272 269 270 271 267
278 280 284 283 284 286 289 290 293 298 299 301 305 307 308 309 310 313 316 317 316 314 312 311 309 307 303 298 289 283 283 280 274 270 270 272 276 275 269 270 274 273
277 279 284 285 285 284 286 289 292 295 297 299 302 305 307 307 308 311 313 315 315 314 312 310 307 306 306 306 301 290 282 278 273 269 268 269 275 278 273 273 277 277
278 281 284 286 287 286 286 289 290 292 295 296 298 301 304 306 308 309 310 312 312 311 310 308 306 305 303 304 304 301 294 285 276 271 272 275 277 279 278 277 277 276
279 282 284 286 286 285 285 286 287 290 293 294 295 298 301 304 306 306 307 311 310 309 309 308 306 304 302 301 301 302 301 296 288 282 280 279 277 277 276 276 277 277
279 281 283 284 284 284 284 284 284 288 291 292 294 296 298 301 303 304 305 307 307 305 305 305 305 304 301 300 302 305 305 300 294 289 284 280 277 276 275 275 279 281
278 282 284 284 284 285 285 283 283 287 289 291 294 296 297 298 300 302 303 303 301 299 298 299 300 301 301 301 301 302 303 300 294 288 284 281 278 277 277 278 280 281
280 284 286 287 289 290 289 285 284 285 288 290 293 296 297 298 299 299 299 298 296 294 293 294 296 296 299 301 299 297 295 294 292 288 285 282 280 280 280 281 281 282
284 287 290 292 293 292 290 287 284 285 287 289 292 294 295 297 298 296 295 294 293 291 290 291 294 295 295 295 295 293 290 287 286 284 280 278 278 280 280 280 280 280
289 290 290 291 290 288 285 283 284 285 286 286 289 291 295 298 297 294 293 292 290 288 287 289 290 292 293 292 288 286 285 285 283 282 284 285 284 283 281 279 278 277
286 284 283 283 285 285 282 278 279 281 283 285 287 289 295 298 295 290 290 291 289 286 284 286 288 289 289 288 285 283 282 283 281 281 283 284 283 280 278 276 275 276
285 282 279 280 282 282 279 276 278 282 284 285 287 291 296 296 291 286 286 288 288 286 284 285 287 288 286 284 283 282 282 282 280 278 277 277 278 277 275 274 272 273
286 282 279 278 280 279 278 280 283 285 287 288 292 296 297 293 288 285 286 288 287 285 286 287 288 287 286 285 283 283 283 284 282 281 279 277 276 276 276 275 273 272
281 280 279 276 275 276 279 283 286 288 290 292 294 296 294 290 287 286 288 288 286 282 282 285 287 287 286 287 288 286 285 284 283 281 278 275 272 271 272 271 270 270
276 275 274 272 272 278 284 286 289 291 292 293 293 292 290 288 287 287 287 286 283 281 283 286 286 286 287 289 290 288 287 286 284 282 279 276 274 271 270 271 272 274
269 268 268 271 276 282 285 287 290 291 290 289 290 290 290 289 289 288 286 285 283 284 286 288 286 285 287 290 290 290 290 288 287 286 285 283 280 276 276 277 274 273
264 265 269 275 280 282 285 287 290 290 288 287 288 288 289 289 289 289 287 285 285 286 287 286 285 286 288 291 293 292 291 290 290 290 290 287 283 280 277 274 271 273
263 269 274 280 283 285 287 287 287 287 286 286 287 288 288 288 288 287 286 286 287 286 285 283 283 286 291 293 294 293 292 292 291 289 287 282 279 276 271 268 272 281
266 274 279 281 282 284 285 285 285 285 286 286 287 287 287 288 287 287 286 287 286 284 283 281 284 291 296 295 294 293 292 291 289 282 277 275 277 274 267 268 276 280
270 276 279 280 281 282 281 280 281 282 283 283 283 286 287 287 287 288 287 286 283 281 280 279 285 294 298 296 293 293 292 292 291 281 267 262 268 266 259 267 277 273
272 276 277 278 277 276 274 275 277 278 279 280 281 283 285 285 285 286 286 284 280 277 277 279 286 295 299 297 292 292 297 301 301 290 268 252 248 249 251 269 277 267
270 274 275 273 272 272 272 272 272 272 275 278 281 282 281 282 283 282 282 280 276 274 278 283 289 294 297 297 291 291 302 309 307 305 288 248 230 230 243 261 258 246